Kenner, LA

5:36 PM CDT on August 30, 2016 (GMT -0500)
New Orleans International

Weather History for KMSY - January, 2013

Change the Weather History Date:

Sunday, January 27, 2013

  Actual Average Record
Temperature  
Mean Temperature 64 °F -  
Max Temperature 73 °F 62 °F 80 °F (1957)
Min Temperature 55 °F 43 °F 26 °F (1966)
Degree Days  
Heating Degree Days 1    
Growing Degree Days 14 (Base 50)    
Moisture  
Dew Point 58 °F    
Average Humidity 81    
Maximum Humidity 97    
Minimum Humidity 57    
Precipitation  
Precipitation 0.00 in - - ()
Sea Level Pressure  
Sea Level Pressure 30.24 in    
Wind  
Wind Speed 6 mph (SE)    
Max Wind Speed 12 mph    
Max Gust Speed 18 mph    
Visibility 8 miles    
Events Fog    
Averages and records for this station are not official NWS values.
T = Trace of Precipitation, MM = Missing Value Source: NWS Daily Summary

Daily Weather History Graph

Daily Weather History Graph

Search for Another Location

Airport or City:

Trip Planner

Search our weather history database for the weather conditions in past years. The results will help you decide how hot, cold, wet, or windy it might be!

Date:

Astronomy

Jan. 27, 2013 Rise Set
Actual Time 6:53 AM CST 5:34 PM CST
Civil Twilight 6:28 AM CST 5:59 PM CST
Nautical Twilight 5:59 AM CST 6:28 PM CST
Astronomical Twilight 5:31 AM CST 6:56 PM CST
Moon 6:20 PM CST (1/27) 6:52 AM CST (1/27)
Length of Visible Light 11h 31m
Length of Day
10h 40m
Full, 100% of the Moon is Illuminated
Jan 27
Full
Feb 3
Last Quarter
Feb 10
New
Feb 17
First Quarter
Feb 25
Full

Hourly Weather History & Observations

Time (CST) Temp. Dew Point Humidity Pressure Visibility Wind Dir Wind Speed Gust Speed Precip Events Conditions
12:53 AM 57.0 °F 55.0 °F 93% 30.24 in 6.0 mi South 4.6 mph - N/A Fog Scattered Clouds
1:53 AM 55.9 °F 55.0 °F 97% 30.24 in 4.0 mi SSE 4.6 mph - N/A   Partly Cloudy
2:53 AM 55.9 °F 55.0 °F 97% 30.24 in 5.0 mi SE 3.5 mph - N/A   Clear
3:53 AM 54.0 °F 53.1 °F 97% 30.23 in 6.0 mi SE 3.5 mph - N/A Fog Shallow Fog
4:53 AM 55.0 °F 53.1 °F 93% 30.23 in 7.0 mi Calm Calm - N/A Fog Shallow Fog
5:53 AM 55.9 °F 54.0 °F 93% 30.24 in 6.0 mi SE 4.6 mph - N/A   Partly Cloudy
6:53 AM 57.9 °F 55.9 °F 93% 30.24 in 5.0 mi ESE 5.8 mph - N/A Fog Scattered Clouds
7:53 AM 62.1 °F 59.0 °F 90% 30.25 in 7.0 mi SE 8.1 mph - N/A   Mostly Cloudy
8:53 AM 66.0 °F 60.1 °F 81% 30.27 in 10.0 mi SE 10.4 mph - N/A   Mostly Cloudy
9:53 AM 69.1 °F 60.1 °F 73% 30.28 in 10.0 mi SE 10.4 mph - N/A   Mostly Cloudy
10:53 AM 73.0 °F 59.0 °F 61% 30.28 in 10.0 mi SSE 11.5 mph 18.4 mph N/A   Mostly Cloudy
11:53 AM 71.1 °F 59.0 °F 66% 30.27 in 10.0 mi ESE 8.1 mph - N/A   Mostly Cloudy
12:53 PM 72.0 °F 59.0 °F 64% 30.23 in 10.0 mi SE 8.1 mph - N/A   Mostly Cloudy
1:53 PM 72.0 °F 59.0 °F 64% 30.22 in 10.0 mi SE 9.2 mph - N/A   Mostly Cloudy
2:53 PM 72.0 °F 57.9 °F 61% 30.21 in 10.0 mi SSE 10.4 mph - N/A   Mostly Cloudy
3:53 PM 71.1 °F 59.0 °F 66% 30.21 in 10.0 mi SE 10.4 mph - N/A   Mostly Cloudy
4:53 PM 70.0 °F 59.0 °F 68% 30.22 in 10.0 mi SE 8.1 mph - N/A   Mostly Cloudy
5:53 PM 66.9 °F 59.0 °F 76% 30.22 in 10.0 mi ESE 8.1 mph - N/A   Mostly Cloudy
6:53 PM 64.9 °F 59.0 °F 81% 30.23 in 10.0 mi ESE 10.4 mph - N/A   Mostly Cloudy
7:53 PM 64.0 °F 59.0 °F 84% 30.24 in 10.0 mi ESE 8.1 mph - N/A   Mostly Cloudy
8:53 PM 63.0 °F 59.0 °F 87% 30.24 in 10.0 mi ESE 9.2 mph - N/A   Mostly Cloudy
9:53 PM 63.0 °F 60.1 °F 90% 30.24 in 10.0 mi ESE 8.1 mph - N/A   Mostly Cloudy
10:53 PM 62.1 °F 59.0 °F 90% 30.24 in 9.0 mi ESE 4.6 mph - N/A   Mostly Cloudy
11:53 PM 62.1 °F 59.0 °F 90% 30.23 in 9.0 mi ESE 8.1 mph - N/A   Mostly Cloudy